Location: Helsinki
(60.1699°N, 24.9384°E)
Time: 17:42:23
(UTC+02:00)

A-11 Canister half - Pass Details

Date: 28 October 2020
Orbit: 1525 x 1684 km, 47.3° (Epoch: 29 November)

Event Time Altitude Azimuth Distance (km) Brightness Sun altitude
Rises 20:27:01 0° 274° (W) 4,704 12.6 -29.0°
Reaches altitude 10° 20:30:50 10° 262° (W) 3,706 11.6 -29.4°
Maximum altitude 20:37:36 23° 214° (SW) 2,789 10.3 -30.2°
Enters shadow 20:40:49 19° 187° (S) 3,017 10.3 -30.5°
